Regional Weather Roundup
Issued by NWS Green Bay, WI

Home | Current Version | Previous Version | Graphics & Text | Print | Product List | Glossary Off
Versions: 1 2 3 4 5 6 7 8 9 10 11 12 13 14 15 16 17 18 19 20 21 22 23 24 25 26 27 28 29 30 31 32 33 34 35 36 37 38 39 40 41 42 43 44 45 46 47 48 49 50

000
ASUS43 KGRB 301811
RWRGRB

NORTH-CENTRAL AND NORTHEAST WISCONSIN REGIONAL WEATHER ROUNDUP
NATIONAL WEATHER SERVICE GREEN BAY WI
100 PM CDT TUE JUN 30 2015

WIZ005-009-010>012-018-019-301900-
NORTH CENTRAL WISCONSIN

CITY           SKY/WX    TMP DP  RH WIND       PRES   REMARKS
IRONWOOD       CLOUDY    54  48  82 NW12      29.96S
MANITOWISH WTR CLOUDY    57  52  81 NE8       29.95S
ARBOR VITAE    CLOUDY    58  51  78 N14       29.95S
EAGLE RIVER    CLOUDY    56  50  80 N9        29.94S
LAND O LAKES   CLOUDY    55  49  81 N12G17    29.95F
RHINELANDER    CLOUDY    59  50  72 VRB7G16   29.94S
PHILLIPS       CLOUDY    60  51  73 N7        29.94F
ANTIGO         CLOUDY    60  54  78 N12       29.91S
TOMAHAWK       CLOUDY    60  51  72 N6        29.94S
MERRILL        CLOUDY    63  53  70 N13       29.93S
$$

WIZ013-073-301900-
NORTHEAST WISCONSIN

CITY           SKY/WX    TMP DP  RH WIND       PRES   REMARKS
IRON MOUNTAIN  CLOUDY    59  50  72 NW14G23   29.89R
MARINETTE      CLOUDY    64  54  68 N7        29.85R
OCONTO         CLOUDY    66  56  71 N7        29.85S
$$

WIZ017-030-035>037-045-301900-
CENTRAL WISCONSIN

CITY           SKY/WX    TMP DP  RH WIND       PRES   REMARKS
MEDFORD        CLOUDY    62  52  70 N12G17    29.93S
WAUSAU         CLOUDY    65  52  62 N13       29.89R
MOSINEE        NOT AVBL
MARSHFIELD     CLOUDY    68  53  58 NW13      29.90F
WISC RAPIDS    PTSUNNY   70  54  56 N13       29.90S
STEVENS POINT  CLOUDY    67  53  61 NW8       29.89R
WAUPACA        PTSUNNY   72  56  57 NE9G16    29.87S
SHAWANO        CLOUDY    68  55  63 N8        29.87S
CLINTONVILLE   CLOUDY    68  54  60 N7        29.86F
$$

WIZ038-039-048-051-301900-
FOX VALLEY

CITY           SKY/WX    TMP DP  RH WIND       PRES   REMARKS
NWS GREEN BAY  CLOUDY    67  57  70 N12       29.86R
APPLETON       CLOUDY    66  55  68 N12       29.86S
OSHKOSH        CLOUDY    69  57  65 NW13      29.84S
FOND DU LAC    CLOUDY    71  57  61 NW15      29.85S
$$

WIZ022-050-052-301900-
EAST CENTRAL WISCONSIN

CITY           SKY/WX    TMP DP  RH WIND       PRES   REMARKS
STURGEON BAY   CLOUDY    61  54  77 N14       29.88R
MANITOWOC      CLOUDY    62  58  86 MISG      29.85R
SHEBOYGAN      CLOUDY    65  60  84 NE9       29.84R
$$

LMZ563-521-522-541>543-301900-
LAKESHORE

STATION/POSITION TIME  TEMP    WIND        PRES    VSBY  WAVE
                       AIR SEA DIR/SP/G                  HT/PER
                 (UTC) (F)     (DEG/KT/KT) (MB)    (MI)  (FT/S)
SHEBOYGAN LKSHOR 1800   60      30/ 18/ 20 1010.6R
KEWAUNEE LKSHORE 1700   61      20/  7/ 13 1010.0R
ALGOMA MARINA    1740           10/  8/ 11   N/A
NORTHPORT PIER   1700   56     340/ 15/ 17 1011.2R
N MID LAKE BUOY  1750   49 45  320/ 14/ 16 1010.4R         2/ 4
SISTER BAY LKSHO 1714   59     350/ 18/ 21   N/A
CHAMBERS ISLAND  1700   61     320/ 13/ 16 1010.8S
MENOMINEE LKSHOR 1700   61     360/ 11/ 13 1011.5R
$$



USA.gov is the U.S. government's official web portal to all federal, state and local government web resources and services.